Flag for India Weather past 2 weeks in Varanasi, Uttar Pradesh, India

Now
88 °F

Scattered clouds.


Feels Like: 89 °F
Forecast: 71 / 94 °F
Wind: 2 mph from North

Location: Lucknow / Amausi

Current Time: Mar 31, 2015 at 6:10:46 PM

Latest Report: Mar 31, 2015 at 5:30 PM


Visibility: 4 mi

Pressure: 29.77 "Hg

Humidity: 46%

Dew point: 64 °F

Location of VaranasiLocation

Historic Weather in Varanasi — Graph

°F

Varanasi temperature yesterday

Maximum temperature yesterday: 81 °F (at 12:00 AM)
Minimum temperature yesterday: 70 °F (at 7:30 PM)
Average temperature yesterday: 74 °F

Past Weeks' High & Low Weather Summary

 TemperatureHumidityPressure
High100 °F (Mar 26, 2:30 PM)88% (Mar 17, 12:00 AM)30.04 "Hg (Mar 17, 12:00 AM)
Low57 °F (Mar 20, 6:00 AM)20% (Mar 28, 4:30 PM)29.53 "Hg (Mar 22, 3:00 PM)
Average79 °F58%29.88 "Hg
* Reported Mar 16 4:30 PM — Mar 31 4:30 PM, Varanasi, Weather by CustomWeather, © 2015

Note: Actual official high and low records may vary slightly from our data, if they occured in-between our weather recording intervals... More about our weather records

Advertising

Varanasi weather history for previous 24 hours

 ConditionsComfort  
Time TempWeatherWind HumidityBarometerVisibility
4:30 PM
Tue, Mar 31
90 °FPassing clouds.2 mph41%29.77 "Hg4 mi
4:00 PM88 °FPassing clouds.2 mph43%29.77 "Hg4 mi
3:30 PM86 °FPassing clouds.2 mph49%29.77 "Hg4 mi
3:00 PM86 °FPassing clouds.3 mph49%29.77 "Hg4 mi
2:30 PM86 °FClear.2 mph49%29.80 "Hg4 mi
2:00 PM86 °FClear.2 mph49%29.80 "Hg4 mi
1:30 PM86 °FHaze.2 mph52%29.83 "Hg3 mi
1:00 PM84 °FHaze.2 mph55%29.83 "Hg3 mi
12:00 PM82 °FHaze.5 mph55%29.86 "Hg3 mi
11:30 AM82 °FHaze.6 mph55%29.89 "Hg3 mi
11:00 AM81 °FHaze.7 mph58%29.89 "Hg3 mi
10:30 AM79 °FHaze.7 mph65%29.89 "Hg3 mi
9:30 AM73 °FScattered clouds.7 mph74%29.92 "Hg3 mi
9:00 AM70 °FScattered clouds.7 mph83%29.89 "Hg2 mi
8:00 AM70 °FBroken clouds.2 mph83%29.92 "Hg2 mi
7:30 AM70 °FBroken clouds.3 mph83%29.89 "Hg3 mi
7:00 AM68 °FBroken clouds.2 mph83%29.89 "Hg3 mi
6:30 AM66 °FBroken clouds.3 mph88%29.86 "Hg3 mi
6:00 AM66 °FPartly cloudy.5 mph88%29.86 "Hg3 mi
5:30 AM66 °FPartly cloudy.9 mph88%29.86 "Hg3 mi
4:00 AM68 °FPartly cloudy.7 mph83%29.83 "Hg3 mi
3:00 AM68 °FPassing clouds.5 mph83%29.86 "Hg3 mi
2:00 AM68 °FPassing clouds.3 mph83%29.86 "Hg3 mi
1:00 AM70 °FPassing clouds.3 mph78%29.86 "Hg3 mi
12:00 AM70 °FPassing clouds.3 mph83%29.86 "Hg3 mi
11:00 PM
Mon, Mar 30
70 °FPassing clouds.3 mph78%29.89 "Hg3 mi
10:00 PM70 °FPartly cloudy.2 mph78%29.89 "Hg3 mi
9:00 PM70 °FPartly cloudy.3 mph78%29.89 "Hg3 mi
8:30 PM70 °FPartly cloudy.3 mph78%29.86 "Hg3 mi
8:00 PM70 °FPartly cloudy.3 mph83%29.86 "Hg3 mi
7:30 PM70 °FPartly cloudy.2 mph83%29.86 "Hg3 mi
7:00 PM72 °FPartly cloudy.5 mph78%29.83 "Hg3 mi
6:30 PM73 °FBroken clouds.5 mph74%29.83 "Hg3 mi
6:00 PM73 °FBroken clouds.7 mph74%29.83 "Hg3 mi
Weather by CustomWeather, © 2015

See weather overviewHow to use our weather pages